Retour au catalogue

FENGYUN 1C DEB

ActifPO
NORAD 31754·DEBRIS·🇨🇳 China

Lancé May 10, 1999 depuis Taiyuan Satellite Launch Center

Loading…

Prochains Passages (prochaines 24 heures)

TLE

FraisSource: Space-Track

Époque: Sep 13, 2026, 04:28 UTC

1 31754U 99025CFD 26256.18612602  .00001659  00000-0  49390-3 0  9991
2 31754  99.0626 243.5214 0049835 124.0491 236.5444 14.43875808  9145

Suivez FENGYUN 1C DEB en temps réel avec AllMySat

Download on the App Store